Location: Fundy National Park
(45.6138°N, 65.0316°W)
Time: 20:49:40
(UTC-04:00)

BlueWalker 3 - Pass Details

Date: 06 December 2022
Orbit: 499 x 517 km, 53.2° (Epoch: 05 February)

Event Time Altitude Azimuth Distance (km) Brightness Sun altitude
Rises 18:50:31 0° 302° (WNW) 2,626 6.3 -22.6°
Reaches altitude 10° 18:52:45 10° 306° (NW) 1,733 5.2 -23.0°
Enters shadow 18:55:41 45° 332° (NNW) 706 2.7 -23.5°
